1999,2,1,0,5,.75,01,-.21,01,0.00,01,9900.00,99,9900.00,99
1999,2,1,0,10,.52,01,-.21,01,-.06,01,9900.00,99,9900.00,99
1999,2,1,0,15,.04,01,-.13,01,-.63,01,9900.00,99,9900.00,99
1999,2,1,0,20,-.57,01,.09,01,-1.35,01,9900.00,99,9900.00,99
1999,2,1,0,25,-.33,01,.08,01,-1.32,01,9900.00,99,9900.00,99
1999,2,1,0,30,-.47,01,.05,01,-1.32,01,9900.00,99,9900.00,99
1999,2,1,0,35,-.60,01,-.05,01,-1.40,01,9900.00,99,9900.00,99
1999,2,1,0,40,-.79,01,-.16,01,-1.40,01,9900.00,99,9900.00,99
1999,2,1,0,45,-1.02,01,-.01,01,-1.41,01,9900.00,99,9900.00,99
1999,2,1,0,50,-.99,01,0.00,01,-1.41,01,9900.00,99,9900.00,99
1999,2,1,0,55,-.69,01,.06,01,-1.33,01,9900.00,99,9900.00,99
1999,2,1,1,0,-.60,01,.01,01,-1.38,01,9900.00,99,9900.00,99
1999,2,1,1,5,-.30,01,-.01,01,-1.13,01,9900.00,99,9900.00,99
1999,2,1,1,10,-.19,01,-.03,01,-1.23,01,9900.00,99,9900.00,99
1999,2,1,1,15,-.26,01,-.06,01,-1.27,01,9900.00,99,9900.00,99
1999,2,1,1,20,.20,01,-.03,01,-.66,01,9900.00,99,9900.00,99
1999,2,1,1,25,.80,01,-.01,01,.15,01,9900.00,99,9900.00,99
1999,2,1,1,30,.57,01,-.18,01,-.11,01,9900.00,99,9900.00,99
1999,2,1,1,35,-.35,01,-.19,01,-1.05,01,9900.00,99,9900.00,99
1999,2,1,1,40,-.42,01,-.21,01,-1.28,01,9900.00,99,9900.00,99
1999,2,1,1,45,-.06,01,-.03,01,-1.02,01,9900.00,99,9900.00,99
1999,2,1,1,50,-.01,01,0.00,01,-.90,01,9900.00,99,9900.00,99
1999,2,1,1,55,.02,01,.03,01,-.84,01,9900.00,99,9900.00,99
1999,2,1,2,0,0.00,01,-.08,01,-.84,01,9900.00,99,9900.00,99
1999,2,1,2,5,-.03,01,-.17,01,-1.02,01,9900.00,99,9900.00,99
1999,2,1,2,10,-.39,01,-.16,01,-1.34,01,9900.00,99,9900.00,99
1999,2,1,2,15,-.70,01,-.14,01,-1.40,01,9900.00,99,9900.00,99
1999,2,1,2,20,-.72,01,-.14,01,-1.41,01,9900.00,99,9900.00,99
1999,2,1,2,25,-.68,01,-.01,01,-1.40,01,9900.00,99,9900.00,99
1999,2,1,2,30,-.50,01,0.00,01,-1.34,01,9900.00,99,9900.00,99
1999,2,1,2,35,-.37,01,0.00,01,-1.30,01,9900.00,99,9900.00,99
1999,2,1,2,40,-.53,01,-.01,01,-1.38,01,9900.00,99,9900.00,99
1999,2,1,2,45,-.22,01,-.06,01,-1.13,01,9900.00,99,9900.00,99
1999,2,1,2,50,-.43,01,-.08,01,-1.31,01,9900.00,99,9900.00,99
1999,2,1,2,55,-.71,01,-.06,01,-1.37,01,9900.00,99,9900.00,99
1999,2,1,3,0,-.81,01,-.04,01,-1.41,01,9900.00,99,9900.00,99
1999,2,1,3,5,-.77,01,-.04,01,-1.41,01,9900.00,99,9900.00,99
1999,2,1,3,10,-.73,01,-.02,01,-1.41,01,9900.00,99,9900.00,99
1999,2,1,3,15,-.70,01,-.06,01,-1.40,01,9900.00,99,9900.00,99
1999,2,1,3,20,-.35,01,-.30,01,-1.16,01,9900.00,99,9900.00,99
1999,2,1,3,25,.02,01,-.23,01,-.45,01,9900.00,99,9900.00,99
1999,2,1,3,30,2.27,01,-.33,01,1.23,01,9900.00,99,9900.00,99
1999,2,1,3,35,3.13,01,-.27,01,2.47,01,9900.00,99,9900.00,99
1999,2,1,3,40,3.97,01,-.41,01,3.34,01,9900.00,99,9900.00,99
1999,2,1,3,45,3.23,01,-.75,01,2.92,01,9900.00,99,9900.00,99
1999,2,1,3,50,.22,01,-.65,01,-.33,01,9900.00,99,9900.00,99
1999,2,1,3,55,-.83,01,-.41,01,-1.40,01,9900.00,99,9900.00,99
1999,2,1,4,0,-.67,01,-.33,01,-1.34,01,9900.00,99,9900.00,99
1999,2,1,4,5,-.26,01,-.31,01,-1.02,01,9900.00,99,9900.00,99
1999,2,1,4,10,-.43,01,-.33,01,-1.19,01,9900.00,99,9900.00,99
1999,2,1,4,15,-.15,01,-.25,01,-.96,01,9900.00,99,9900.00,99
1999,2,1,4,20,1.21,01,-.17,01,.30,01,9900.00,99,9900.00,99
1999,2,1,4,25,2.40,01,-.25,01,1.27,01,9900.00,99,9900.00,99
1999,2,1,4,30,2.43,01,-.32,01,1.64,01,9900.00,99,9900.00,99
1999,2,1,4,35,2.70,01,-.30,01,1.60,01,9900.00,99,9900.00,99
1999,2,1,4,40,2.07,01,-.37,01,1.56,01,9900.00,99,9900.00,99
1999,2,1,4,45,1.21,01,-.37,01,.61,01,9900.00,99,9900.00,99
1999,2,1,4,50,.08,01,-.37,01,-.74,01,9900.00,99,9900.00,99
1999,2,1,4,55,-.43,01,-.41,01,-1.23,01,9900.00,99,9900.00,99
1999,2,1,5,0,-.35,01,-.30,01,-1.30,01,9900.00,99,9900.00,99
1999,2,1,5,5,-.34,01,-.35,01,-1.21,01,9900.00,99,9900.00,99
1999,2,1,5,10,-.10,01,-.35,01,-1.16,01,9900.00,99,9900.00,99
1999,2,1,5,15,-.06,01,-.35,01,-1.09,01,9900.00,99,9900.00,99
1999,2,1,5,20,.33,01,-.28,01,-.47,01,9900.00,99,9900.00,99
1999,2,1,5,25,1.04,01,-.07,01,.35,01,9900.00,99,9900.00,99
1999,2,1,5,30,1.98,01,-.03,01,1.22,01,9900.00,99,9900.00,99
1999,2,1,5,35,1.45,01,-.16,01,.76,01,9900.00,99,9900.00,99
1999,2,1,5,40,.20,01,-.37,01,-.46,01,9900.00,99,9900.00,99
1999,2,1,5,45,-.01,01,-.36,01,-.92,01,9900.00,99,9900.00,99
1999,2,1,5,50,.99,01,-.05,01,.43,01,9900.00,99,9900.00,99
1999,2,1,5,55,2.47,01,-.01,01,1.62,01,9900.00,99,9900.00,99
1999,2,1,6,0,2.35,01,-.17,01,1.58,01,9900.00,99,9900.00,99
1999,2,1,6,5,1.75,01,-.36,01,1.38,01,9900.00,99,9900.00,99
1999,2,1,6,10,.80,01,-.29,01,.05,01,9900.00,99,9900.00,99
1999,2,1,6,15,.85,01,-.23,01,-.01,01,9900.00,99,9900.00,99
1999,2,1,6,20,.43,01,-.26,01,-.21,01,9900.00,99,9900.00,99
1999,2,1,6,25,.01,01,-.39,01,-.88,01,9900.00,99,9900.00,99
1999,2,1,6,30,-.46,01,-.39,01,-1.27,01,9900.00,99,9900.00,99
1999,2,1,6,35,-.54,01,-.39,01,-1.28,01,9900.00,99,9900.00,99
1999,2,1,6,40,-.52,01,-.38,01,-1.33,01,9900.00,99,9900.00,99
1999,2,1,6,45,-.43,01,-.35,01,-1.18,01,9900.00,99,9900.00,99
1999,2,1,6,50,-.28,01,-.30,01,-1.12,01,9900.00,99,9900.00,99
1999,2,1,6,55,-.07,01,-.31,01,-.98,01,9900.00,99,9900.00,99
1999,2,1,7,0,-.12,01,-.37,01,-.98,01,9900.00,99,9900.00,99
1999,2,1,7,5,-.29,01,-.39,01,-1.09,01,9900.00,99,9900.00,99
1999,2,1,7,10,-.22,01,-.39,01,-1.04,01,9900.00,99,9900.00,99
1999,2,1,7,15,.39,01,-.31,01,-.37,01,9900.00,99,9900.00,99
1999,2,1,7,20,1.14,01,-.16,01,.63,01,9900.00,99,9900.00,99
1999,2,1,7,25,.86,01,-.31,01,.08,01,9900.00,99,9900.00,99
1999,2,1,7,30,.66,01,-.40,01,-.02,01,9900.00,99,9900.00,99
1999,2,1,7,35,1.26,01,-.41,01,.63,01,9900.00,99,9900.00,99
1999,2,1,7,40,2.06,01,-.39,01,1.45,01,9900.00,99,9900.00,99
1999,2,1,7,45,2.72,01,-.38,01,1.97,01,9900.00,99,9900.00,99
1999,2,1,7,50,3.00,01,-.33,01,2.66,01,9900.00,99,9900.00,99
1999,2,1,7,55,3.72,01,-.28,01,3.39,01,9900.00,99,9900.00,99
1999,2,1,8,0,4.92,01,-.05,01,4.33,01,9900.00,99,9900.00,99
1999,2,1,8,5,5.72,01,.02,01,5.14,01,9900.00,99,9900.00,99
1999,2,1,8,10,8.75,01,-.03,01,7.96,01,9900.00,99,9900.00,99
1999,2,1,8,15,11.04,01,-.20,01,10.12,01,9900.00,99,9900.00,99
1999,2,1,8,20,10.99,01,-.28,01,10.01,01,9900.00,99,9900.00,99
1999,2,1,8,25,11.41,01,-.33,01,10.30,01,9900.00,99,9900.00,99
1999,2,1,8,30,17.79,01,-.33,01,16.08,01,9900.00,99,9900.00,99
1999,2,1,8,35,28.13,03,-.36,03,25.84,03,9900.00,99,9900.00,99
1999,2,1,8,40,38.55,03,-.29,03,35.72,03,9900.00,99,9900.00,99
1999,2,1,8,45,54.69,03,-.25,03,51.38,03,9900.00,99,9900.00,99
1999,2,1,8,50,65.00,03,-.29,03,60.98,03,9900.00,99,9900.00,99
1999,2,1,8,55,75.25,03,-.22,03,70.17,03,9900.00,99,9900.00,99
1999,2,1,9,0,109.72,03,-.04,03,99.80,03,9900.00,99,9900.00,99
1999,2,1,9,5,149.51,11,.19,10,138.91,10,9900.00,99,9900.00,99
1999,2,1,9,10,199.54,11,.51,10,187.30,10,9900.00,99,9900.00,99
1999,2,1,9,15,242.35,11,.49,10,230.52,10,9900.00,99,9900.00,99
1999,2,1,9,20,170.13,03,.55,03,162.22,03,9900.00,99,9900.00,99
1999,2,1,9,25,261.06,15,4.86,14,245.35,14,9900.00,99,9900.00,99
1999,2,1,9,30,169.92,03,1.12,03,160.47,03,9900.00,99,9900.00,99
1999,2,1,9,35,105.20,03,3.97,03,97.17,03,9900.00,99,9900.00,99
1999,2,1,9,40,68.88,03,.92,03,64.52,03,9900.00,99,9900.00,99
1999,2,1,9,45,55.48,03,.92,03,51.55,03,9900.00,99,9900.00,99
1999,2,1,9,50,75.05,03,1.20,03,69.88,03,9900.00,99,9900.00,99
1999,2,1,9,55,89.90,03,2.20,03,82.10,03,9900.00,99,9900.00,99
1999,2,1,10,0,109.38,03,2.56,03,102.54,03,9900.00,99,9900.00,99
1999,2,1,10,5,128.79,03,2.88,03,122.31,03,9900.00,99,9900.00,99
1999,2,1,10,10,132.32,03,4.19,03,125.38,03,9900.00,99,9900.00,99
1999,2,1,10,15,132.28,03,3.89,03,124.09,03,9900.00,99,9900.00,99
1999,2,1,10,20,122.73,03,3.03,03,115.62,03,9900.00,99,9900.00,99
1999,2,1,10,25,117.39,03,1.66,03,108.20,03,9900.00,99,9900.00,99
1999,2,1,10,30,148.18,03,3.55,03,134.00,03,9900.00,99,9900.00,99
1999,2,1,10,35,168.25,03,2.09,03,157.00,03,9900.00,99,9900.00,99
1999,2,1,10,40,131.47,03,1.09,03,125.42,03,9900.00,99,9900.00,99
1999,2,1,10,45,117.72,03,1.03,03,111.73,03,9900.00,99,9900.00,99
1999,2,1,10,50,135.16,03,1.16,03,127.77,03,9900.00,99,9900.00,99
1999,2,1,10,55,124.01,03,1.16,03,117.09,03,9900.00,99,9900.00,99
1999,2,1,11,0,147.35,03,.94,03,140.46,03,9900.00,99,9900.00,99
1999,2,1,11,5,113.96,03,.03,03,108.39,03,9900.00,99,9900.00,99
1999,2,1,11,10,109.07,03,-.12,03,104.39,03,9900.00,99,9900.00,99
1999,2,1,11,15,83.21,03,-.16,03,78.59,03,9900.00,99,9900.00,99
1999,2,1,11,20,88.36,03,-.04,03,83.35,03,9900.00,99,9900.00,99
1999,2,1,11,25,108.99,03,.09,03,103.38,03,9900.00,99,9900.00,99
1999,2,1,11,30,111.09,03,.26,03,105.03,03,9900.00,99,9900.00,99
1999,2,1,11,35,112.72,03,.28,03,107.41,03,9900.00,99,9900.00,99
1999,2,1,11,40,120.53,03,.10,03,115.11,03,9900.00,99,9900.00,99
1999,2,1,11,45,143.04,03,.17,03,136.54,03,9900.00,99,9900.00,99
1999,2,1,11,50,149.32,03,.25,03,141.33,03,9900.00,99,9900.00,99
1999,2,1,11,55,189.76,03,.85,03,178.23,03,9900.00,99,9900.00,99
1999,2,1,12,0,279.98,03,1.23,03,264.93,03,9900.00,99,9900.00,99
1999,2,1,12,5,524.29,03,64.82,03,485.66,03,9900.00,99,9900.00,99
1999,2,1,12,10,733.24,69,289.21,68,539.31,08,9900.00,99,9900.00,99
1999,2,1,12,15,394.71,11,8.26,10,367.61,10,9900.00,99,9900.00,99
1999,2,1,12,20,317.36,03,4.88,03,296.97,03,9900.00,99,9900.00,99
1999,2,1,12,25,316.59,11,4.79,10,290.26,10,9900.00,99,9900.00,99
1999,2,1,12,30,437.96,03,57.46,03,399.51,03,9900.00,99,9900.00,99
1999,2,1,12,35,627.36,49,56.43,48,601.61,08,9900.00,99,9900.00,99
1999,2,1,12,40,594.82,41,35.16,40,587.84,08,9900.00,99,9900.00,99
1999,2,1,12,45,616.29,45,50.97,44,596.03,08,9900.00,99,9900.00,99
1999,2,1,12,50,557.91,03,64.94,03,533.84,03,9900.00,99,9900.00,99
1999,2,1,12,55,688.25,69,102.69,68,632.11,08,9900.00,99,9900.00,99
1999,2,1,13,0,657.62,49,148.12,48,569.35,08,9900.00,99,9900.00,99
1999,2,1,13,5,505.48,03,57.68,03,473.81,03,9900.00,99,9900.00,99
1999,2,1,13,10,622.35,41,108.58,40,569.88,08,9900.00,99,9900.00,99
1999,2,1,13,15,549.39,03,94.34,03,501.29,03,9900.00,99,9900.00,99
1999,2,1,13,20,709.03,15,306.00,14,501.59,14,9900.00,99,9900.00,99
1999,2,1,13,25,594.90,19,216.86,18,439.14,18,9900.00,99,9900.00,99
1999,2,1,13,30,907.24,08,712.99,88,456.56,88,9900.00,99,9900.00,99
1999,2,1,13,35,675.02,15,415.31,14,418.31,14,9900.00,99,9900.00,99
1999,2,1,13,40,579.57,03,199.33,03,456.57,03,9900.00,99,9900.00,99
1999,2,1,13,45,267.90,03,3.88,03,252.23,03,9900.00,99,9900.00,99
1999,2,1,13,50,389.58,03,41.99,03,379.28,03,9900.00,99,9900.00,99
1999,2,1,13,55,313.60,03,1.18,03,298.77,03,9900.00,99,9900.00,99
1999,2,1,14,0,340.31,03,3.42,03,320.57,03,9900.00,99,9900.00,99
1999,2,1,14,5,401.67,03,19.21,03,397.38,03,9900.00,99,9900.00,99
1999,2,1,14,10,610.50,57,139.38,56,523.94,08,9900.00,99,9900.00,99
1999,2,1,14,15,723.20,93,373.60,92,502.81,08,9900.00,99,9900.00,99
1999,2,1,14,20,534.93,09,173.72,09,443.20,09,9900.00,99,9900.00,99
1999,2,1,14,25,665.81,81,264.41,80,529.06,08,9900.00,99,9900.00,99
1999,2,1,14,30,536.54,09,226.70,09,414.24,09,9900.00,99,9900.00,99
1999,2,1,14,35,263.55,03,17.94,03,248.86,03,9900.00,99,9900.00,99
1999,2,1,14,40,237.59,03,23.75,03,221.09,03,9900.00,99,9900.00,99
1999,2,1,14,45,224.84,11,2.10,10,205.80,10,9900.00,99,9900.00,99
1999,2,1,14,50,208.56,11,4.21,10,188.85,10,9900.00,99,9900.00,99
1999,2,1,14,55,200.44,03,12.63,03,196.08,03,9900.00,99,9900.00,99
1999,2,1,15,0,131.37,03,.12,03,122.48,03,9900.00,99,9900.00,99
1999,2,1,15,5,159.72,03,1.49,03,145.68,03,9900.00,99,9900.00,99
1999,2,1,15,10,231.98,03,33.17,03,214.10,03,9900.00,99,9900.00,99
1999,2,1,15,15,180.50,03,22.03,03,165.49,03,9900.00,99,9900.00,99
1999,2,1,15,20,130.25,03,1.24,03,117.87,03,9900.00,99,9900.00,99
1999,2,1,15,25,93.96,03,.96,03,93.96,03,9900.00,99,9900.00,99
1999,2,1,15,30,95.30,03,.51,03,87.33,03,9900.00,99,9900.00,99
1999,2,1,15,35,98.23,03,.36,03,90.87,03,9900.00,99,9900.00,99
1999,2,1,15,40,135.89,03,.18,03,126.83,03,9900.00,99,9900.00,99
1999,2,1,15,45,133.99,11,.17,10,122.39,10,9900.00,99,9900.00,99
1999,2,1,15,50,184.20,03,41.10,03,166.94,03,9900.00,99,9900.00,99
1999,2,1,15,55,210.91,03,19.51,03,209.31,03,9900.00,99,9900.00,99
1999,2,1,16,0,165.95,03,.39,03,155.73,03,9900.00,99,9900.00,99
1999,2,1,16,5,154.49,03,.18,03,145.16,03,9900.00,99,9900.00,99
1999,2,1,16,10,160.89,15,4.17,14,145.79,14,9900.00,99,9900.00,99
1999,2,1,16,15,145.15,11,2.50,10,132.81,10,9900.00,99,9900.00,99
1999,2,1,16,20,130.35,03,5.19,03,129.60,03,9900.00,99,9900.00,99
1999,2,1,16,25,111.82,03,11.64,03,109.27,03,9900.00,99,9900.00,99
1999,2,1,16,30,113.50,03,12.81,03,109.03,03,9900.00,99,9900.00,99
1999,2,1,16,35,80.48,03,.01,03,73.94,03,9900.00,99,9900.00,99
1999,2,1,16,40,58.72,03,-.12,03,55.09,03,9900.00,99,9900.00,99
1999,2,1,16,45,60.93,03,-.05,03,55.86,03,9900.00,99,9900.00,99
1999,2,1,16,50,66.91,01,0.00,01,61.33,01,9900.00,99,9900.00,99
1999,2,1,16,55,67.57,01,4.99,01,67.48,01,9900.00,99,9900.00,99
1999,2,1,17,0,70.01,01,4.18,01,68.48,01,9900.00,99,9900.00,99
1999,2,1,17,5,69.50,01,.39,01,62.57,01,9900.00,99,9900.00,99
1999,2,1,17,10,57.21,01,.10,01,51.80,01,9900.00,99,9900.00,99
1999,2,1,17,15,44.36,01,-.04,01,40.28,01,9900.00,99,9900.00,99
1999,2,1,17,20,33.83,01,-.01,01,30.66,01,9900.00,99,9900.00,99
1999,2,1,17,25,25.85,01,-.20,01,25.59,01,9900.00,99,9900.00,99
1999,2,1,17,30,20.12,01,-.25,01,18.12,01,9900.00,99,9900.00,99
1999,2,1,17,35,14.89,01,.03,01,14.60,01,9900.00,99,9900.00,99
1999,2,1,17,40,8.66,01,.27,01,8.58,01,9900.00,99,9900.00,99
1999,2,1,17,45,4.95,01,.10,01,4.11,01,9900.00,99,9900.00,99
1999,2,1,17,50,2.65,01,-.11,01,1.82,01,9900.00,99,9900.00,99
1999,2,1,17,55,2.33,01,-.33,01,1.53,01,9900.00,99,9900.00,99
1999,2,1,18,0,1.50,01,-.36,01,.73,01,9900.00,99,9900.00,99
1999,2,1,18,5,.63,01,-.34,01,-.18,01,9900.00,99,9900.00,99
1999,2,1,18,10,.18,01,-.26,01,-.60,01,9900.00,99,9900.00,99
1999,2,1,18,15,.02,01,-.09,01,-.81,01,9900.00,99,9900.00,99
1999,2,1,18,20,.05,01,.20,01,-.77,01,9900.00,99,9900.00,99
1999,2,1,18,25,-.01,01,.37,01,-.99,01,9900.00,99,9900.00,99
1999,2,1,18,30,-.14,01,.16,01,-1.20,01,9900.00,99,9900.00,99
1999,2,1,18,35,-.30,01,.06,01,-1.36,01,9900.00,99,9900.00,99
1999,2,1,18,40,-.12,01,.12,01,-1.10,01,9900.00,99,9900.00,99
1999,2,1,18,45,-.35,01,-.08,01,-1.20,01,9900.00,99,9900.00,99
1999,2,1,18,50,-.66,01,-.19,01,-1.31,01,9900.00,99,9900.00,99
1999,2,1,18,55,-.49,01,-.19,01,-1.34,01,9900.00,99,9900.00,99
1999,2,1,19,0,-.03,01,-.15,01,-.91,01,9900.00,99,9900.00,99
1999,2,1,19,5,.12,01,-.13,01,-.41,01,9900.00,99,9900.00,99
1999,2,1,19,10,.03,01,-.21,01,-.49,01,9900.00,99,9900.00,99
1999,2,1,19,15,-.46,01,-.29,01,-1.10,01,9900.00,99,9900.00,99
1999,2,1,19,20,-.13,01,-.19,01,-1.00,01,9900.00,99,9900.00,99
1999,2,1,19,25,-.03,01,-.12,01,-.92,01,9900.00,99,9900.00,99
1999,2,1,19,30,-.06,01,-.22,01,-.95,01,9900.00,99,9900.00,99
1999,2,1,19,35,-.09,01,-.25,01,-.96,01,9900.00,99,9900.00,99
1999,2,1,19,40,-.01,01,-.17,01,-.79,01,9900.00,99,9900.00,99
1999,2,1,19,45,.02,01,-.18,01,-.59,01,9900.00,99,9900.00,99
1999,2,1,19,50,.05,01,-.17,01,-.53,01,9900.00,99,9900.00,99
1999,2,1,19,55,-.02,01,-.17,01,-.85,01,9900.00,99,9900.00,99
1999,2,1,20,0,-.04,01,-.01,01,-.97,01,9900.00,99,9900.00,99
1999,2,1,20,5,0.00,01,.30,01,-.88,01,9900.00,99,9900.00,99
1999,2,1,20,10,-.02,01,.42,01,-.97,01,9900.00,99,9900.00,99
1999,2,1,20,15,-.13,01,.32,01,-1.16,01,9900.00,99,9900.00,99
1999,2,1,20,20,.12,01,.17,01,-.66,01,9900.00,99,9900.00,99
1999,2,1,20,25,.12,01,.17,01,-.70,01,9900.00,99,9900.00,99
1999,2,1,20,30,-.09,01,.08,01,-1.13,01,9900.00,99,9900.00,99
1999,2,1,20,35,-.02,01,.12,01,-1.06,01,9900.00,99,9900.00,99
1999,2,1,20,40,0.00,01,.31,01,-1.00,01,9900.00,99,9900.00,99
1999,2,1,20,45,.13,01,.50,01,-1.00,01,9900.00,99,9900.00,99
1999,2,1,20,50,.21,01,.59,01,-1.00,01,9900.00,99,9900.00,99
1999,2,1,20,55,0.00,01,.40,01,-1.03,01,9900.00,99,9900.00,99
1999,2,1,21,0,0.00,01,.43,01,-1.06,01,9900.00,99,9900.00,99
1999,2,1,21,5,.20,01,.47,01,-.79,01,9900.00,99,9900.00,99
1999,2,1,21,10,.68,01,.55,01,-.44,01,9900.00,99,9900.00,99
1999,2,1,21,15,.56,01,.47,01,-.77,01,9900.00,99,9900.00,99
1999,2,1,21,20,.16,01,.43,01,-.92,01,9900.00,99,9900.00,99
1999,2,1,21,25,.73,01,.47,01,-.49,01,9900.00,99,9900.00,99
1999,2,1,21,30,.73,01,.34,01,-.35,01,9900.00,99,9900.00,99
1999,2,1,21,35,.89,01,.35,01,-.18,01,9900.00,99,9900.00,99
1999,2,1,21,40,.75,01,.33,01,-.13,01,9900.00,99,9900.00,99
1999,2,1,21,45,.15,01,.22,01,-.83,01,9900.00,99,9900.00,99
1999,2,1,21,50,-.03,01,.12,01,-1.09,01,9900.00,99,9900.00,99
1999,2,1,21,55,-.39,01,.05,01,-1.30,01,9900.00,99,9900.00,99
1999,2,1,22,0,-.09,01,.02,01,-1.04,01,9900.00,99,9900.00,99
1999,2,1,22,5,-.01,01,.03,01,-.77,01,9900.00,99,9900.00,99
1999,2,1,22,10,.03,01,-.01,01,-.58,01,9900.00,99,9900.00,99
1999,2,1,22,15,.10,01,-.09,01,-.45,01,9900.00,99,9900.00,99
1999,2,1,22,20,.10,01,-.16,01,-.41,01,9900.00,99,9900.00,99
1999,2,1,22,25,.11,01,-.12,01,-.31,01,9900.00,99,9900.00,99
1999,2,1,22,30,.19,01,-.14,01,-.34,01,9900.00,99,9900.00,99
1999,2,1,22,35,.01,01,-.12,01,-.48,01,9900.00,99,9900.00,99
1999,2,1,22,40,.01,01,-.07,01,-.35,01,9900.00,99,9900.00,99
1999,2,1,22,45,.01,01,-.07,01,-.36,01,9900.00,99,9900.00,99
1999,2,1,22,50,-.02,01,-.05,01,-.61,01,9900.00,99,9900.00,99
1999,2,1,22,55,0.00,01,-.02,01,-.43,01,9900.00,99,9900.00,99
1999,2,1,23,0,.04,01,-.02,01,-.32,01,9900.00,99,9900.00,99
1999,2,1,23,5,.03,01,-.03,01,-.27,01,9900.00,99,9900.00,99
1999,2,1,23,10,.08,01,-.06,01,-.11,01,9900.00,99,9900.00,99
1999,2,1,23,15,.07,01,-.03,01,-.09,01,9900.00,99,9900.00,99
1999,2,1,23,20,.44,01,-.01,01,0.00,01,9900.00,99,9900.00,99
1999,2,1,23,25,.39,01,-.03,01,0.00,01,9900.00,99,9900.00,99
1999,2,1,23,30,.35,01,-.03,01,0.00,01,9900.00,99,9900.00,99
1999,2,1,23,35,.05,01,-.02,01,-.02,01,9900.00,99,9900.00,99
1999,2,1,23,40,.05,01,-.06,01,-.07,01,9900.00,99,9900.00,99
1999,2,1,23,45,.17,01,-.03,01,-.01,01,9900.00,99,9900.00,99
1999,2,1,23,50,.05,01,-.05,01,-.05,01,9900.00,99,9900.00,99
1999,2,1,23,55,.17,01,-.06,01,-.04,01,9900.00,99,9900.00,99
1999,2,2,0,0,.10,01,0.00,01,-.04,01,9900.00,99,9900.00,99
1999,2,2,0,5,-.01,01,-.03,01,-.36,01,9900.00,99,9900.00,99
1999,2,2,0,10,-.12,01,-.03,01,-.59,01,9900.00,99,9900.00,99
1999,2,2,0,15,-.58,01,-.04,01,-1.04,01,9900.00,99,9900.00,99
1999,2,2,0,20,-.61,01,-.06,01,-1.05,01,9900.00,99,9900.00,99
1999,2,2,0,25,-.64,01,-.21,01,-.97,01,9900.00,99,9900.00,99
1999,2,2,0,30,-1.04,01,-.36,01,-1.34,01,9900.00,99,9900.00,99
1999,2,2,0,35,-1.03,01,-.29,01,-1.38,01,9900.00,99,9900.00,99
1999,2,2,0,40,-.77,01,-.21,01,-1.18,01,9900.00,99,9900.00,99
1999,2,2,0,45,-1.12,01,-.32,01,-1.41,01,9900.00,99,9900.00,99
1999,2,2,0,50,-1.17,01,-.34,01,-1.41,01,9900.00,99,9900.00,99
1999,2,2,0,55,-1.68,01,-.32,01,-1.82,01,9900.00,99,9900.00,99
1999,2,2,1,0,-2.02,01,-.15,01,-2.33,01,9900.00,99,9900.00,99
1999,2,2,1,5,-2.41,01,-.06,01,-2.68,01,9900.00,99,9900.00,99
1999,2,2,1,10,-2.60,01,-.14,01,-3.09,01,9900.00,99,9900.00,99
1999,2,2,1,15,-2.89,01,-.16,01,-3.28,01,9900.00,99,9900.00,99
1999,2,2,1,20,-2.86,01,-.08,01,-3.29,01,9900.00,99,9900.00,99
1999,2,2,1,25,-2.54,01,0.00,01,-2.99,01,9900.00,99,9900.00,99
1999,2,2,1,30,-2.44,01,.01,01,-2.83,01,9900.00,99,9900.00,99
1999,2,2,1,35,-2.43,01,-.02,01,-2.68,01,9900.00,99,9900.00,99
1999,2,2,1,40,-2.79,01,-.10,01,-3.18,01,9900.00,99,9900.00,99
1999,2,2,1,45,-2.63,01,-.06,01,-3.20,01,9900.00,99,9900.00,99
1999,2,2,1,50,-2.58,01,.01,01,-2.95,01,9900.00,99,9900.00,99
1999,2,2,1,55,-2.08,01,.16,01,-2.47,01,9900.00,99,9900.00,99
1999,2,2,2,0,-1.77,01,.25,01,-2.20,01,9900.00,99,9900.00,99
1999,2,2,2,5,-2.03,01,.11,01,-2.37,01,9900.00,99,9900.00,99
1999,2,2,2,10,-2.25,01,.03,01,-2.53,01,9900.00,99,9900.00,99
1999,2,2,2,15,-2.16,01,.01,01,-2.45,01,9900.00,99,9900.00,99
1999,2,2,2,20,-2.42,01,-.02,01,-2.81,01,9900.00,99,9900.00,99
1999,2,2,2,25,-2.21,01,-.05,01,-2.53,01,9900.00,99,9900.00,99
1999,2,2,2,30,-2.00,01,-.05,01,-2.26,01,9900.00,99,9900.00,99
1999,2,2,2,35,-2.08,01,-.01,01,-2.35,01,9900.00,99,9900.00,99
1999,2,2,2,40,-1.99,01,-.01,01,-2.24,01,9900.00,99,9900.00,99
1999,2,2,2,45,-1.28,01,-.01,01,-1.59,01,9900.00,99,9900.00,99
1999,2,2,2,50,-.10,01,.03,01,-.44,01,9900.00,99,9900.00,99
1999,2,2,2,55,.03,01,.02,01,-.09,01,9900.00,99,9900.00,99
1999,2,2,3,0,-.35,01,-.05,01,-.74,01,9900.00,99,9900.00,99
1999,2,2,3,5,-.71,01,-.16,01,-1.13,01,9900.00,99,9900.00,99
1999,2,2,3,10,-.75,01,-.16,01,-1.05,01,9900.00,99,9900.00,99
1999,2,2,3,15,-1.02,01,-.16,01,-1.32,01,9900.00,99,9900.00,99
1999,2,2,3,20,-1.68,01,-.16,01,-1.82,01,9900.00,99,9900.00,99
1999,2,2,3,25,-2.22,01,-.14,01,-2.39,01,9900.00,99,9900.00,99
1999,2,2,3,30,-2.39,01,-.12,01,-2.70,01,9900.00,99,9900.00,99
1999,2,2,3,35,-2.67,01,-.14,01,-2.90,01,9900.00,99,9900.00,99
1999,2,2,3,40,-2.48,01,-.10,01,-2.48,01,9900.00,99,9900.00,99
1999,2,2,3,45,-2.78,01,-.12,01,-3.09,01,9900.00,99,9900.00,99
1999,2,2,3,50,-3.22,01,-.21,01,-3.53,01,9900.00,99,9900.00,99
1999,2,2,3,55,-3.33,01,-.21,01,-3.66,01,9900.00,99,9900.00,99
1999,2,2,4,0,-3.72,01,-.25,01,-4.13,01,9900.00,99,9900.00,99
1999,2,2,4,5,-3.72,01,-.21,01,-4.04,01,9900.00,99,9900.00,99
1999,2,2,4,10,-2.87,01,-.05,01,-3.33,01,9900.00,99,9900.00,99
1999,2,2,4,15,-2.77,01,-.06,01,-3.27,01,9900.00,99,9900.00,99
1999,2,2,4,20,-2.89,01,-.03,01,-3.32,01,9900.00,99,9900.00,99
1999,2,2,4,25,-2.86,01,.05,01,-3.29,01,9900.00,99,9900.00,99
1999,2,2,4,30,-2.87,01,.08,01,-3.30,01,9900.00,99,9900.00,99
1999,2,2,4,35,-2.92,01,.05,01,-3.38,01,9900.00,99,9900.00,99
1999,2,2,4,40,-3.32,01,.03,01,-3.59,01,9900.00,99,9900.00,99
1999,2,2,4,45,-3.49,01,.05,01,-3.77,01,9900.00,99,9900.00,99
1999,2,2,4,50,-2.76,01,.25,01,-3.25,01,9900.00,99,9900.00,99
1999,2,2,4,55,-2.92,01,.29,01,-3.31,01,9900.00,99,9900.00,99
1999,2,2,5,0,-2.93,01,.16,01,-3.33,01,9900.00,99,9900.00,99
1999,2,2,5,5,-2.81,01,.02,01,-3.32,01,9900.00,99,9900.00,99
1999,2,2,5,10,-3.19,01,.07,01,-3.50,01,9900.00,99,9900.00,99
1999,2,2,5,15,-3.18,01,.01,01,-3.72,01,9900.00,99,9900.00,99
1999,2,2,5,20,-3.44,01,-.12,01,-4.11,01,9900.00,99,9900.00,99
1999,2,2,5,25,-3.36,01,-.27,01,-3.75,01,9900.00,99,9900.00,99
1999,2,2,5,30,-3.02,01,-.05,01,-3.47,01,9900.00,99,9900.00,99
1999,2,2,5,35,-3.58,01,-.17,01,-3.94,01,9900.00,99,9900.00,99
1999,2,2,5,40,-3.55,01,-.37,01,-3.92,01,9900.00,99,9900.00,99
1999,2,2,5,45,-3.15,01,-.38,01,-3.41,01,9900.00,99,9900.00,99
1999,2,2,5,50,-3.60,01,-.32,01,-3.82,01,9900.00,99,9900.00,99
1999,2,2,5,55,-3.67,01,-.25,01,-3.95,01,9900.00,99,9900.00,99
1999,2,2,6,0,-3.39,01,-.23,01,-3.78,01,9900.00,99,9900.00,99
1999,2,2,6,5,-2.99,01,-.17,01,-3.38,01,9900.00,99,9900.00,99
1999,2,2,6,10,-2.99,01,-.01,01,-3.41,01,9900.00,99,9900.00,99
1999,2,2,6,15,-3.28,01,-.21,01,-3.68,01,9900.00,99,9900.00,99
1999,2,2,6,20,-3.09,01,-.02,01,-3.56,01,9900.00,99,9900.00,99
1999,2,2,6,25,-2.58,01,.07,01,-3.09,01,9900.00,99,9900.00,99
1999,2,2,6,30,-2.51,01,.10,01,-2.95,01,9900.00,99,9900.00,99
1999,2,2,6,35,-2.53,01,-.13,01,-2.91,01,9900.00,99,9900.00,99
1999,2,2,6,40,-1.33,01,-.32,01,-1.60,01,9900.00,99,9900.00,99
1999,2,2,6,45,-.14,01,-.36,01,-.61,01,9900.00,99,9900.00,99
1999,2,2,6,50,.27,01,-.37,01,-.08,01,9900.00,99,9900.00,99
1999,2,2,6,55,.14,01,-.38,01,-.24,01,9900.00,99,9900.00,99
1999,2,2,7,0,.02,01,-.39,01,-.43,01,9900.00,99,9900.00,99
1999,2,2,7,5,-.01,01,-.43,01,-.74,01,9900.00,99,9900.00,99
1999,2,2,7,10,.26,01,-.39,01,-.30,01,9900.00,99,9900.00,99
1999,2,2,7,15,.69,01,-.35,01,.02,01,9900.00,99,9900.00,99
1999,2,2,7,20,.81,01,-.36,01,.06,01,9900.00,99,9900.00,99
1999,2,2,7,25,.99,01,-.39,01,.30,01,9900.00,99,9900.00,99
1999,2,2,7,30,1.76,01,-.36,01,1.30,01,9900.00,99,9900.00,99
1999,2,2,7,35,3.23,01,-.34,01,2.90,01,9900.00,99,9900.00,99
1999,2,2,7,40,5.33,01,-.10,01,4.96,01,9900.00,99,9900.00,99
1999,2,2,7,45,7.77,01,-.07,01,7.70,01,9900.00,99,9900.00,99
1999,2,2,7,50,13.39,01,.02,01,12.31,01,9900.00,99,9900.00,99
1999,2,2,7,55,18.50,01,.18,01,16.97,01,9900.00,99,9900.00,99
1999,2,2,8,0,18.84,01,.34,01,17.18,01,9900.00,99,9900.00,99
1999,2,2,8,5,20.70,01,.36,01,18.87,01,9900.00,99,9900.00,99
1999,2,2,8,10,22.92,01,.35,01,21.16,01,9900.00,99,9900.00,99
1999,2,2,8,15,24.58,01,.36,01,22.73,01,9900.00,99,9900.00,99
1999,2,2,8,20,32.56,01,.26,01,30.48,01,9900.00,99,9900.00,99
1999,2,2,8,25,41.45,01,.32,01,39.17,01,9900.00,99,9900.00,99
1999,2,2,8,30,52.26,03,.40,03,49.60,03,9900.00,99,9900.00,99